Weather in Bamut

Russia / Chechen Republic     43°09′45″N   45°12′03″E
temp.,
°C
wind,
m/s
gust,
m/s
humid.,
%
clouds,
%
prec.,
mm/h
press.,
hPa
HPBL,
m
20 may, fri
fri2000:00+9w5991100 1.6 1019596
03:00+8wnw4791100 2.1 1019520
06:00+8sw2491100 0.9 1019192
09:00+9ssw4691100 3.1 1020295
12:00+13wsw4869100 0.4 10191319
15:00+12sw61076100 0.8 1019569
18:00+11wsw5108095 0.9 1020380
21:00+10wsw41083100 1.2 1021193
21 may, sat
sat2100:00+11sw597050 0.1 1020229
03:00+9sw35743 0.1 102058
06:00+12sw34713 0.0 102077
09:00+18wnw46445 0.0 10191423
12:00+20nw564148 0.0 10181743
15:00+21nnw33425 0.0 10161781
18:00+19ne1260100 0.0 101617
21:00+13sw227227 0.0 101617
22 may, sun
sun2200:00+11w226819 0.0 101316
03:00+11sw22580 0.0 101215
06:00+14wsw11610 0.0 101138
09:00+20e23484 0.0 1009363
12:00+24ene34350 0.0 10061242
15:00+25e45360 0.0 10041521
18:00+22e24610 0.0 1003109
21:00+15sw22720 0.0 100414
23 may, mon
mon2300:00+14wnw33710 0.0 100338
03:00+12w45760 0.0 100483
06:00+14w247553 0.0 1005133
09:00+19nnw335974 0.0 1005946
12:00+19n3460100 0.1 10041244
15:00+15wsw2286100 0.8 100540
18:00+13wsw2394100 4.3 100580
21:00+13n2797100 12.4 1005411
24 may, tue
tue2400:00+12nw3698100 9.5 1006402
03:00+12wnw2497100 15.1 1007226
06:00+11wnw2396100 4.4 1008136
09:00+12nw1293100 7.4 1010142
12:00+13ssw1290100 0.8 1010263
15:00+15wnw2275100 1.1 1010802
18:00+13nw4791100 1.1 1013420
21:00+10wnw4895100 2.7 1016502